"Pseudo-MPEC" for C1RUT92

Created 2020 Jan 15 19:07:10 UT using Find_Orb

Click here for an explanation of pseudo-MPECs

 
 Astrometry: 
     C1RUT92  C2020 01 14.29799 08 26 26.53 +57 57 31.1    ~1E7q 20.7 GVNEOCPG96
     C1RUT92  C2020 01 14.30325 08 26 21.80 +57 57 16.5    ~1E7q 20.7 GVNEOCPG96
     C1RUT92  C2020 01 14.30851 08 26 16.97 +57 57 00.6    ~1E7q 20.0 GVNEOCPG96
     C1RUT92  C2020 01 14.31377 08 26 12.20 +57 56 44.4    ~1E7q 20.8 GVNEOCPG96
     C1RUT92  C2020 01 14.32882708 25 57.25 +57 55 56.0    ~1E8b 20.6 GVNEOCPH01
     C1RUT92  C2020 01 14.33893908 25 47.99 +57 55 24.2    ~1E8b 20.2 GVNEOCPH01
     C1RUT92  C2020 01 14.34624108 25 41.30 +57 55 00.7    ~1E8b 21.1 GVNEOCPH01
     C1RUT92  C2020 01 14.35263808 25 35.42 +57 54 40.2    ~1E8b 20.5 GVNEOCPH01
     C1RUT92  C2020 01 14.39138 08 25 00.80 +57 52 37.0    ~1E9q 21.0 GVNEOCPI52
     C1RUT92  C2020 01 14.39263 08 24 59.87 +57 52 32.4    ~1E9q 20.5 GVNEOCPI52
     C1RUT92  C2020 01 14.39388 08 24 58.69 +57 52 28.7    ~1E9q 21.2 GVNEOCPI52
     C1RUT92  C2020 01 15.28078 08 12 46.37 +56 59 01.2    ~1F77 20.7 GVNEOCPG96
     C1RUT92  C2020 01 15.28154 08 12 45.66 +56 58 58.0    ~1F77 20.4 GVNEOCPG96
     C1RUT92  C2020 01 15.28304 08 12 44.23 +56 58 54.8    ~1F77 20.7 GVNEOCPG96

Station data:
(G96) Mt. Lemmon Survey  (N32.442754 W110.788720)  US/Arizona.  Observers T.
   A. Pruyne, B. M. Africano, E. J. Christensen, G. A. Farneth, D. C. Fuls,
   A. R. Gibbs, A. D. Grauer, H. Gröller, J. A. Johnson, R. A. Kowalski, S.
   M. Larson, G. J. Leonard, D. Rankin, R. L. Seaman, F. C. Shelly. 1.5-m
   reflector + 10K CCD.
(H01) Magdalena Ridge Observatory, Socorro  (N33.984833 W107.189333)  US/New
   Mexico.  Observers W. H. Ryan, E. V. Ryan. Measurer W. H. Ryan. 2.4-m
   f/8.9 reflector + CCD.
(I52) Steward Observatory, Mt. Lemmon Station  (N32.442547 W110.788920)
   US/Arizona.  Observers T. A. Pruyne, B. M. Africano, E. J. Christensen, G.
   A. Farneth, D. C. Fuls, A. R. Gibbs, A. D. Grauer, H. Gröller, J. A.
   Johnson, R. A. Kowalski, S. M. Larson, G. J. Leonard, D. Rankin, R. L.
   Seaman, F. C. Shelly. 1.0-m reflector + CCD.

Orbital elements:  C1RUT92
   Perihelion 2020 Apr 20.265405 +/- 1.14 TT =  6:22:11 (JD 2458959.765405)
Epoch 2020 Jan 15.0 TT = JDT 2458863.5   Earth MOID: 0.0136   AutoNEOCP
M 263.31014863 +/- 1.4              (J2000 ecliptic)
n   1.00440913 +/- 0.00297          Peri.  283.68744 +/- 0.9
a   0.98748145 +/- 0.00195          Node   302.04548 +/- 0.13
e   0.1383282 +/- 0.00213           Incl.   10.86204 +/- 0.07
P   0.98/358.41d           H 26.1   G  0.15   U  8.8  
q 0.85088487 +/- 0.000665    Q 1.12407803 +/- 0.00428
From 14 observations 2020 Jan. 14-15 (23.6 hr); mean residual 0".52
Residuals in arcseconds: 
200114 G96  .35-  .03-    200114 H01  .25+  .04-    200114 I52  .25+  .45+    
200114 G96  .08+  .56+    200114 H01  .25+  .26-    200115 G96  .44-  .63-    
200114 G96  .22-  .01+    200114 H01  .12+  .10-    200115 G96  .05-  .95-    
200114 G96  .02+  .68-    200114 I52  1.2-  .15+    200115 G96  .50+  1.5+    
200114 H01  .27+  .04+    200114 I52  .52+  .16-    

Ephemerides (geocentric):
Date (UTC) HH   RA              Dec         delta   r     elong  mag " sig PA
---- -- -- --  -------------   -----------  ------ ------ -----  --- ---- ---
2020 01 15 19  08 04 59.879   +56 20 37.78  .04376 1.0196 144.7 20.7 13.7  57
2020 01 15 20  08 04 21.340   +56 17 21.83  .04361 1.0195 144.7 20.7 15.2  57
2020 01 15 21  08 03 42.647   +56 14 03.66  .04347 1.0194 144.8 20.7 16.8  57
2020 01 15 22  08 03 03.800   +56 10 43.23  .04332 1.0193 144.8 20.7 18.5  57
2020 01 15 23  08 02 24.798   +56 07 20.53  .04317 1.0192 144.9 20.7 20.2  57
2020 01 16 00  08 01 45.643   +56 03 55.53  .04302 1.0191 145.0 20.7 22.0  57
2020 01 16 01  08 01 06.332   +56 00 28.20  .04288 1.0190 145.0 20.7 23.9  57
2020 01 16 02  08 00 26.868   +55 56 58.52  .04273 1.0189 145.1 20.7 25.9  57
2020 01 16 03  07 59 47.249   +55 53 26.46  .04259 1.0188 145.1 20.6 27.9  57
2020 01 16 04  07 59 07.475   +55 49 52.00  .04244 1.0187 145.2 20.6 30.1  57
2020 01 16 05  07 58 27.548   +55 46 15.11  .04229 1.0187 145.3 20.6 32.3  57
2020 01 16 06  07 57 47.465   +55 42 35.76  .04215 1.0186 145.3 20.6 34.6  57
2020 01 16 07  07 57 07.229   +55 38 53.92  .04200 1.0185 145.4 20.6 37.1  57
2020 01 16 08  07 56 26.838   +55 35 09.57  .04186 1.0184 145.5 20.6 39.6  57
2020 01 16 09  07 55 46.293   +55 31 22.68  .04171 1.0183 145.5 20.6 42.2  57
2020 01 16 10  07 55 05.593   +55 27 33.22  .04157 1.0182 145.6 20.6 44.9  57
2020 01 16 11  07 54 24.740   +55 23 41.16  .04142 1.0181 145.6 20.6 47.7  56
2020 01 16 12  07 53 43.732   +55 19 46.47  .04128 1.0180 145.7 20.6 50.6  56
2020 01 16 13  07 53 02.571   +55 15 49.12  .04113 1.0179 145.8 20.6 53.7  56
2020 01 16 14  07 52 21.255   +55 11 49.09  .04099 1.0178 145.8 20.5 56.8  56
2020 01 16 15  07 51 39.786   +55 07 46.35  .04084 1.0177 145.9 20.5 60.0  56
2020 01 16 16  07 50 58.164   +55 03 40.85  .04070 1.0176 145.9 20.5 63.3  56
2020 01 16 17  07 50 16.388   +54 59 32.58  .04056 1.0175 146.0 20.5 66.8  56
2020 01 16 18  07 49 34.458   +54 55 21.51  .04041 1.0174 146.1 20.5 70.4  56
2020 01 16 19  07 48 52.376   +54 51 07.59  .04027 1.0173 146.1 20.5 74.0  55
2020 01 16 20  07 48 10.141   +54 46 50.80  .04013 1.0172 146.2 20.5 77.8  55
2020 01 16 21  07 47 27.753   +54 42 31.12  .03999 1.0171 146.2 20.5 81.7  55
2020 01 16 22  07 46 45.213   +54 38 08.49  .03984 1.0170 146.3 20.5 85.8  55
2020 01 16 23  07 46 02.520   +54 33 42.91  .03970 1.0170 146.4 20.5 89.9  55
2020 01 17 00  07 45 19.676   +54 29 14.32  .03956 1.0169 146.4 20.5 94.2  55
2020 01 17 01  07 44 36.680   +54 24 42.70  .03942 1.0168 146.5 20.4 98.6  55
2020 01 17 02  07 43 53.533   +54 20 08.01  .03927 1.0167 146.5 20.4  103  54
2020 01 17 03  07 43 10.234   +54 15 30.23  .03913 1.0166 146.6 20.4  108  54
2020 01 17 04  07 42 26.785   +54 10 49.31  .03899 1.0165 146.7 20.4  113  54
2020 01 17 05  07 41 43.185   +54 06 05.22  .03885 1.0164 146.7 20.4  118  54
2020 01 17 06  07 40 59.435   +54 01 17.93  .03871 1.0163 146.8 20.4  123  54
2020 01 17 07  07 40 15.536   +53 56 27.40  .03857 1.0162 146.8 20.4  128  54
2020 01 17 08  07 39 31.487   +53 51 33.60  .03843 1.0161 146.9 20.4  133  54
2020 01 17 09  07 38 47.289   +53 46 36.49  .03829 1.0160 147.0 20.4  139  53
2020 01 17 10  07 38 02.942   +53 41 36.03  .03815 1.0159 147.0 20.4  145  53
2020 01 17 11  07 37 18.447   +53 36 32.19  .03801 1.0158 147.1 20.3  150  53
2020 01 17 12  07 36 33.805   +53 31 24.94  .03787 1.0157 147.1 20.3  156  53
2020 01 17 13  07 35 49.015   +53 26 14.22  .03773 1.0156 147.2 20.3  162  53
2020 01 17 14  07 35 04.078   +53 21 00.01  .03759 1.0155 147.3 20.3  169  53
2020 01 17 15  07 34 18.995   +53 15 42.27  .03745 1.0154 147.3 20.3  175  53
2020 01 17 16  07 33 33.766   +53 10 20.96  .03732 1.0153 147.4 20.3  182  52
2020 01 17 17  07 32 48.392   +53 04 56.04  .03718 1.0152 147.4 20.3  189  52
2020 01 17 18  07 32 02.873   +52 59 27.48  .03704 1.0152 147.5 20.3  196  52